Regional Weather Roundup
Issued by NWS

Home | Current Version | Previous Version | Graphics & Text | Print | Product List | Glossary On
Versions: 1 2 3 4 5 6 7 8 9 10 11 12 13 14 15 16 17 18 19 20 21 22 23 24 25 26 27 28 29 30 31 32 33 34 35 36 37 38 39 40 41 42 43 44 45 46 47 48 49 50
000
ASUS43 KDTX 270610
RWRMI
MICHIGAN HOURLY REGIONAL WEATHER ROUNDUP
NATIONAL WEATHER SERVICE DETROIT/PONTIAC MI
100 AM EST SAT DEC 27 2014

NOTE: "FAIR" INDICATES FEW OR NO CLOUDS BELOW 12,000 FEET WITH NO
SIGNIFICANT WEATHER AND/OR OBSTRUCTION TO VISIBILITY.

MIZ047>049-052>055-059>063-066>070-074>076-081>083-270700-
SOUTHEAST LOWER MICHIGAN

CITY           SKY/WX    TMP DP  RH WIND       PRES   REMARKS
ADRIAN         CLOUDY    42  38  85 SW8       30.11F
6HR MIN TEMP:  38; 6HR MAX TEMP:  43;

ALMA           CLOUDY    40  38  93 S5        30.05F
ANN ARBOR      CLOUDY    40  38  93 S3        30.11F
BAD AXE        CLOUDY    35  35 100 SW3       30.06F
DETROIT CITY   CLOUDY    44  37  76 SW7       30.12F
6HR MIN TEMP:  41; 6HR MAX TEMP:  45;

DETROIT        CLOUDY    41  38  89 S3        30.13S
6HR MIN TEMP:  37; 6HR MAX TEMP:  41;

FLINT          CLOUDY    46  39  76 S8        30.09S
6HR MIN TEMP:  41; 6HR MAX TEMP:  46;

GROSSE ILE     CLOUDY    41  37  87 S3        30.12S
HILLSDALE      CLOUDY    43  41  92 S6        30.09S
HOWELL         CLOUDY    41  39  91 S6        30.09S
6HR MIN TEMP:  38; 6HR MAX TEMP:  42;


CITY           SKY/WX    TMP DP  RH WIND       PRES   REMARKS
JACKSON        CLOUDY    44  39  82 SW5       30.09S
6HR MIN TEMP:  40; 6HR MAX TEMP:  45;

LAMBERTVILLE   CLOUDY    45  36  70 S6        30.12F
LANSING        CLOUDY    44  39  82 S9        30.08F
6HR MIN TEMP:  39; 6HR MAX TEMP:  44;

LAPEER         NOT AVBL
MASON          CLOUDY    42  38  85 CALM      30.08F
MONROE         CLOUDY    43  37  81 SW3       30.10F
PONTIAC        CLOUDY    42  38  85 SW6       30.09F
6HR MIN TEMP:  39; 6HR MAX TEMP:  42;

PORT HOPE        N/A     36  33  89 CALM      30.05F
6HR MIN TEMP:  31; 6HR MAX TEMP:  36;

PORT HURON     CLOUDY    39  37  93 S7        30.10F
TRI CITIES     CLOUDY    41  36  82 S7        30.06F
6HR MIN TEMP:  34; 6HR MAX TEMP:  42;

YPSILANTI      CLOUDY    44  37  76 SW7       30.12F
6HR MIN TEMP:  39; 6HR MAX TEMP:  44;

$$
MIZ043>046-050>051-056>058-064>065-071>073-077>080-270700-
SOUTHWEST LOWER MICHIGAN

CITY           SKY/WX    TMP DP  RH WIND       PRES   REMARKS
BATTLE CREEK   CLOUDY    45  40  82 S10       30.08S
6HR MIN TEMP:  41; 6HR MAX TEMP:  46;

BENTON HARBOR  CLOUDY    46  41  82 S10       30.05F
6HR MIN TEMP:  45; 6HR MAX TEMP:  47;

BIG RAPIDS     CLOUDY    34  34 100 CALM      30.02S FOG
6HR MIN TEMP:  32; 6HR MAX TEMP:  38;

COLDWATER      CLOUDY    43  39  86 CALM      30.09S
6HR MIN TEMP:  42; 6HR MAX TEMP:  45;

HOLLAND        CLOUDY    47  40  76 S8        30.05S
6HR MIN TEMP:  39; 6HR MAX TEMP:  47;

GRAND RAPIDS   CLOUDY    45  39  79 S15G23    30.04F
6HR MIN TEMP:  36; 6HR MAX TEMP:  45;

KALAMAZOO      CLOUDY    45  40  82 S7        30.08S
6HR MIN TEMP:  41; 6HR MAX TEMP:  47;

MARSHALL       CLOUDY    42  39  89 S6        30.08F
MUSKEGON       CLOUDY    45  41  86 S10       30.02F
6HR MIN TEMP:  38; 6HR MAX TEMP:  45;

$$
MIZ016>042-270700-
NORTHERN LOWER MICHIGAN

CITY           SKY/WX    TMP DP  RH WIND       PRES   REMARKS
ALPENA         CLOUDY    36  33  89 S5        30.06S
6HR MIN TEMP:  36; 6HR MAX TEMP:  39;

BEAVER ISLAND  FOG       35  35 100 CALM      30.03S VSB 1/2
6HR MIN TEMP:  34; 6HR MAX TEMP:  36;

BELLAIRE       CLOUDY    37  35  90 CALM      30.03F
6HR MIN TEMP:  37; 6HR MAX TEMP:  39;

CADILLAC       CLOUDY    31  30  98 CALM      30.00F FOG
CHARLEVOIX     CLOUDY    37  35  95 CALM      30.05F
6HR MIN TEMP:  37; 6HR MAX TEMP:  39;

FRANKFORT      CLOUDY    37  36  96 CALM      30.01F
GAYLORD        CLOUDY    35  34  96 S5        30.01F
6HR MIN TEMP:  34; 6HR MAX TEMP:  36;

GRAYLING       CLOUDY    35  34  97 CALM      30.03F FOG
6HR MIN TEMP:  34; 6HR MAX TEMP:  36;

HARBOR SPRINGS CLOUDY    35  33  95 CALM      30.03S
HOUGHTON LAKE  CLOUDY    34  32  92 CALM      30.03F
6HR MIN TEMP:  32; 6HR MAX TEMP:  36;

MANISTEE       CLOUDY    34  30  86 E5        30.02F
OSCODA         CLOUDY    35  34  96 CALM      30.05F
PELLSTON       CLOUDY    34  33  96 CALM      30.03F
6HR MIN TEMP:  34; 6HR MAX TEMP:  36;

TRAVERSE CITY  CLOUDY    39  35  86 CALM      30.02F
6HR MIN TEMP:  38; 6HR MAX TEMP:  41;

$$
MIZ007>008-015-270700-
EASTERN UPPER MICHIGAN

CITY           SKY/WX    TMP DP  RH WIND       PRES   REMARKS
KINROSS        CLOUDY    34  34 100 CALM      30.02F VSB 1/2
6HR MIN TEMP:  34; 6HR MAX TEMP:  36;

MACKINAC ISLAN CLOUDY    36  36 100 CALM      30.02F FOG
6HR MIN TEMP:  36; 6HR MAX TEMP:  37;

NEWBERRY       FOG       32  32 100 N8        30.02F VSB 1/2
6HR MIN TEMP:  32; 6HR MAX TEMP:  32;

S. S. MARIE    FOG       34  33  96 CALM      30.02F VSB 3/4
6HR MIN TEMP:  34; 6HR MAX TEMP:  34; 6HR PCP: TRACE;

$$
MIZ004>006-011>014-085-270700-
CENTRAL UPPER MICHIGAN

CITY           SKY/WX    TMP DP  RH WIND       PRES   REMARKS
MANISTIQUE     CLOUDY    33  33 100 CALM      30.03F FOG
6HR MIN TEMP:  33; 6HR MAX TEMP:  33;

ESCANABA       CLOUDY    34  30  86 CALM      30.03F
6HR MIN TEMP:  34; 6HR MAX TEMP:  34;

MENOMINEE      CLOUDY    34  32  93 NE5       30.01F
6HR MIN TEMP:  34; 6HR MAX TEMP:  36;

SAWYER-GWINN   LGT SNOW  31  30  96 N5        30.01F
$$
MIZ001>003-009>011-084-270700-
WESTERN UPPER MICHIGAN

CITY           SKY/WX    TMP DP  RH WIND       PRES   REMARKS
IRON MOUNTAIN  LGT SNOW  32  30  92 N3        30.00F VSB 1
6HR MIN TEMP:  31; 6HR MAX TEMP:  33; 6HR PCP: TRACE;

HOUGHTON       LGT SNOW  30  27  88 CALM      30.04F FOG
6HR MIN TEMP:  30; 6HR MAX TEMP:  32; 6HR PCP: TRACE;

COPPER HARBOR    N/A     34  26  72 E6        30.05F
6HR MIN TEMP:  34; 6HR MAX TEMP:  35;

IRONWOOD       CLOUDY    28  28 100 CALM      30.01F
6HR MIN TEMP:  28; 6HR MAX TEMP:  30;

$$

ABBREVIATIONS USED IN REMARKS
   TC - TEMPERATURE IN CELSIUS
  WCI - WIND CHILL INDEX
   HX - HEAT INDEX
  VSB - VISIBILITY



USA.gov is the U.S. government's official web portal to all federal, state and local government web resources and services.